Showing default

HULIANWANG DIGUI-05, 62327

Orbit data source: Space-Track

HULIANWANG DIGUI-05, 62327 is a payload satellite owned by Zhongguo Xingwang (CN) in LEO that was launched on Mon, 16 Dec 2024 UTC via a CHANG ZHENG 5B/YZ-2 launch vehicle from the Wenchang Satellite Launch Center (WSC). Payload-class satellites include a variety of spacecraft equipped with specific instruments for various scientific and technological missions. These include communications satellites like Starlink; space stations such as the ISS; scientific satellites like the Hubble; Earth observation satellites from companies like Planet Labs, Umbra, and HawkEye 360; GPS; miniature CubeSats for education and research; and military/defense satellites.

Loading next visibility...
Identifier
62327, 2024-240E
Orbit
LEO
Country
Flag of CNCN / PRC
Related business
Manufacturer
CAST?
Mission
Operational Civil Communications
Bus & Motor
XINGWANG CL, Unknown motor
Mass
~800 kg wet, ~800 kg dry
Launch date (UTC)
2024-12-16 (1 year ago)
Launch vehicle
CHANG ZHENG 5B/YZ-2
Launch site
Wenchang Satellite Launch Center (WSC)
Object type
Payload
Rocket body
Debris
Shape & HBR
Box + 2 Pan, 5.0 m
Radar Cross Section
5.935 m², Large (>1 m²)

Expand to show TLE details & history
Last TLE update: 4 hours ago

TLE from 4 hours ago
0 HULIANWANG DIGUI-05
1 62327U 24240E   26126.49957638  .00000050  00000-0  81308-4 0  9999
2 62327  86.5067 357.5016 0001466  71.7952 288.3341 13.24407475 67121
Epoch: 2026-05-06T11:59Z
TLE epoch observation values (Epoch: 2026-05-06T11:59:23.399Z)
Latitude
-0.00006°
Longitude
-46.70509°
Altitude
1,170.478 km
Speed
7.268 km/s
True Right ascension
23h 50m 00s
True Declination
0° 00' 00"
Sunlit
Object was in daylight at epoch
Visualization orbit readout
Latitude
Unknown
Longitude
Unknown
Altitude
Unknown
Speed
Unknown
Apparent Right ascension
Unknown
Apparent Declination
Unknown
Sunlit
N/A
Visualization observer readout
Local Sidereal Time
23:44:37
Azimuth
Unknown
Elevation
Unknown
Doppler factor
Unknown
Orbital elements
Apogee altitude
1,166.157 km
Perigee altitude
1,163.946 km
Semi-major axis
7,543.189 km
Eccentricity
0.00015
Inclination
86.5067°
RAAN
357.5016°
Arg. of periapsis
71.7952°
True anomaly
288.31815°
Mean anomaly
288.3341°
Eccentric anomaly
288.32613°
Mean motion
3.31292 °/min
Orbital period
108.67 mins
BSTAR
0.000081308
Loading maneuver chart data...
Computing Atmospheric mass density...
Loading historical data...
Loading historical data...
Loading historical data...
Loading historical data...
Loading historical data...
Loading historical data...
Loading historical data...

Documentation

Showing up to 5 results
|